Weather observations for the past three days for
Pohnpei - NWS Office
| Date | Time (+11) | Wind (mph) | Vis. (mi.) | Weather | Sky Cond. | Temperature (ºF) | Relative Humidity | Wind Chill (°F) | Heat Index (°F) | Pressure | Precipitation (in) | ||||||
|---|---|---|---|---|---|---|---|---|---|---|---|---|---|---|---|---|---|
| Air | Dwpt | 6 hour | altimeter (in) | sea level (mb) | 1 hr | 3 hr | 6 hr | ||||||||||
| Max. | Min. | ||||||||||||||||
| 10 | 10:52 | SE 6 | 15.00 | Overcast | BKN018TCU OVC130 | 88 | 79.3 | 88 | 79.7 | 76% | 103 | 29.87 | 1011.5 | 0.01 | |||
| 10 | 09:50 | SE 3 | 15.00 | Overcast | BKN018 OVC300 | 86.4 | 78.8 | 78% | 100 | 29.88 | 1011.7 | ||||||
| 10 | 08:52 | SE 6 | 15.00 | Overcast | BKN018TCU OVC300 | 86 | 78.8 | 79% | 99 | 29.87 | 1011.4 | ||||||
| 10 | 07:57 | SE 5 | 15.00 | Overcast | SCT018TCU BKN130 OVC300 | 85.6 | 78.4 | 79% | 98 | 29.86 | 1011.0 | 0.01 | |||||
| 10 | 06:51 | E 2 | 15.00 | Overcast | SCT018TCU BKN130 OVC300 | 81.7 | 76.8 | 85% | 89 | 29.83 | 1010.0 | ||||||
| 10 | 05:53 | N 1 | 15.00 | Light Showers Rain | SCT018TCU BKN130 OVC300 | 79.7 | 77.4 | 93% | 85 | 29.81 | 1009.6 | ||||||
| 10 | 04:53 | NE 3 | 15.00 | Light Showers Rain | BKN018TCU BKN130 OVC300 | 79.7 | 77.4 | 82.6 | 79.7 | 93% | 85 | 29.81 | 1009.6 | 0.04 | |||
| 10 | 03:57 | E 2 | 15.00 | Overcast | BKN018TCU BKN130 OVC300 | 80.6 | 75.2 | 84% | 86 | 29.8 | 1009.2 | ||||||
| 10 | 02:56 | SE 3 | 15.00 | Light Showers Rain | BKN018TCU BKN130 OVC300 | 80.6 | 75.2 | 84% | 86 | 29.81 | 1009.3 | ||||||
| 10 | 01:57 | NE 2 | 15.00 | Overcast | SCT018TCU BKN130 OVC300 | 82.6 | 75.4 | 79% | 90 | 29.82 | 1009.9 | ||||||
| 10 | 00:53 | SE 6 | 15.00 | Overcast | BKN018TCU BKN130 OVC300 | 82.4 | 75.7 | 80% | 90 | 29.84 | 1010.5 | ||||||
| 09 | 23:53 | SE 5 | 15.00 | Overcast | BKN018TCU BKN130 OVC300 | 82.2 | 77.4 | 85% | 91 | 29.85 | 1010.8 | ||||||
| 09 | 22:55 | E 5 | 15.00 | Overcast | BKN018TCU BKN130 OVC300 | 82.4 | 77.5 | 82.6 | 81.3 | 85% | 91 | 29.85 | 1010.9 | 0.05 | |||
| 09 | 21:50 | E 6 | 12.00 | Overcast | BKN017TCU OVC120 | 82.6 | 77.2 | 84% | 91 | 29.84 | 1010.6 | ||||||
| 09 | 20:53 | E 7 | 12.00 | Overcast | BKN017TCU OVC120 | 82.6 | 77.5 | 85% | 92 | 29.84 | 1010.5 | ||||||
| 09 | 18:50 | E 7 | 9.00 | Overcast | BKN016TCU OVC120 | 82.4 | 77.2 | 84% | 91 | 29.82 | 1009.7 | ||||||
| 09 | 17:53 | NE 7 G 21 | 7.00 | Light Showers Rain | BKN016TCU OVC120 | 81.3 | 78.6 | 92% | 90 | 29.81 | 1009.3 | ||||||
| 09 | 16:51 | NE 7 | 7.00 | Light Showers Rain | BKN016TCU OVC120 | 82 | 78.8 | 85.8 | 79.7 | 90% | 92 | 29.79 | 1008.9 | 1.4 | |||
| 09 | 15:57 | E 8 | 10.00 | Light Showers Rain | BKN016TCU OVC120 | 82.4 | 79.5 | 91% | 93 | 29.79 | 1008.6 | ||||||
| 09 | 14:59 | S 5 | 10.00 | Light Rain | BKN016TCU OVC120 | 82 | 79.5 | 92% | 92 | 29.79 | 1008.6 | ||||||
| 09 | 13:58 | E 3 | 5.00 | Light Showers Rain | BKN016CB OVC120 | 80.4 | 79.3 | 97% | 88 | 29.79 | 1008.9 | 1.3 | |||||
| 09 | 12:55 | SE 3 | 12.00 | Light Showers Rain | BKN016CB OVC120 | 79.7 | 78.4 | 96% | 86 | 29.81 | 1009.6 | ||||||
| 09 | 11:50 | E 5 | 3.00 | Thunderstorm Heavy Rain | BKN016CB OVC120 | 82.4 | 77.5 | 85% | 91 | 29.84 | 1010.6 | ||||||
| 09 | 10:55 | E 3 | 15.00 | Overcast | BKN018TCU BKN130 OVC300 | 85.8 | 80.8 | 85.8 | 80.6 | 85% | 102 | 29.84 | 1010.6 | 0.06 | |||
| 09 | 09:50 | SE 8 | 15.00 | Light Showers Rain | BKN018TCU BKN130 OVC300 | 83.3 | 79.3 | 88% | 95 | 29.87 | 1011.3 | ||||||
| 09 | 08:59 | E 5 | 15.00 | Overcast | BKN018TCU BKN130 OVC300 | 84.2 | 79.3 | 85% | 97 | 29.86 | 1011.2 | ||||||
| 09 | 07:50 | SE 6 | 15.00 | Overcast | BKN018TCU OVC120 | 82.8 | 77.4 | 84% | 92 | 29.84 | 1010.6 | ||||||
| 09 | 06:52 | SE 6 | 15.00 | Overcast | BKN018TCU OVC120 | 81 | 76.8 | 87% | 88 | 29.81 | 1009.5 | ||||||
| 09 | 05:50 | SE 3 | 15.00 | Overcast | BKN018TCU OVC120 | 80.8 | 76.1 | 86% | 87 | 29.8 | 1009.2 | ||||||
| 09 | 04:55 | SE 5 | 15.00 | Overcast | BKN018TCU OVC120 | 80.6 | 76.1 | 80.6 | 78.6 | 86% | 87 | 29.8 | 1009.0 | 0.2 | |||
| 09 | 03:55 | SE 6 | 15.00 | Overcast | BKN017TCU OVC120 | 79.2 | 76.5 | 91% | 84 | 29.78 | 1008.4 | ||||||
| 09 | 02:55 | SE 5 | 14.00 | Light Showers Rain | BKN017TCU OVC120 | 79 | 76.5 | 92% | 83 | 29.78 | 1008.5 | ||||||
| 09 | 01:50 | SE 7 | 14.00 | Light Showers Rain | BKN017TCU OVC120 | 78.6 | 76.5 | 93% | 82 | 29.8 | 1009.1 | 0.09 | |||||
| 09 | 00:55 | SE 7 | 15.00 | Overcast | BKN018TCU OVC130 | 79 | 76.5 | 92% | 83 | 29.81 | 1009.6 | ||||||
| 08 | 23:55 | SE 6 G 18 | 15.00 | Overcast | BKN018TCU OVC130 | 78.8 | 76.1 | 91% | 83 | 29.82 | 1009.9 | ||||||
| 08 | 22:52 | SE 6 | 6.00 | Light Showers Rain | BKN016TCU OVC120 | 79.2 | 76.6 | 80.2 | 78.4 | 92% | 84 | 29.83 | 1010.2 | 1.07 | |||
| 08 | 21:50 | E 5 | 6.00 | Light Showers Rain | BKN016TCU OVC120 | 79.2 | 77.7 | 95% | 84 | 29.82 | 1009.9 | ||||||
| 08 | 20:56 | E 8 | 4.00 | Showers Rain | OVC015CB | 78.4 | 77.7 | 98% | 82 | 29.81 | 1009.5 | ||||||
| 08 | 19:56 | SE 6 | 5.00 | Light Showers Rain | BKN016TCU OVC120 | 78.8 | 77 | 94% | 83 | 29.81 | 1009.6 | 0.11 | |||||
| 08 | 18:54 | SE 6 | 5.00 | Light Showers Rain | BKN017TCU OVC130 | 78.8 | 76.8 | 94% | 83 | 29.81 | 1009.3 | ||||||
| 08 | 17:55 | SE 5 | 5.00 | Light Showers Rain | BKN017TCU OVC130 | 79.3 | 76.8 | 92% | 84 | 29.78 | 1008.4 | ||||||
| 08 | 16:52 | E 5 | 8.00 | Overcast | BKN017TCU OVC130 | 80.2 | 76.5 | 82.4 | 79.7 | 88% | 86 | 29.76 | 1007.8 | 0.06 | |||
| 08 | 15:56 | SE 7 G 21 | 5.00 | Light Showers Rain | OVC017CB | 79.7 | 77 | 92% | 85 | 29.76 | 1007.8 | ||||||
| 08 | 14:53 | E 3 | 5.00 | Light Showers Rain | BKN017CB OVC120 | 80.1 | 76.1 | 88% | 85 | 29.76 | 1007.9 | ||||||
| 08 | 13:52 | SE 6 | 5.00 | Light Showers Rain | BKN017CB OVC120 | 80.1 | 77.4 | 92% | 86 | 29.77 | 1008.2 | 0.02 | |||||
| 08 | 12:57 | SE 6 | 10.00 | Overcast | BKN017CB OVC120 | 82.4 | 77 | 84% | 91 | 29.79 | 1008.6 | ||||||
| 08 | 11:56 | SE 3 | 10.00 | Overcast | BKN017CB OVC120 | 81.7 | 77.5 | 87% | 90 | 29.79 | 1008.9 | ||||||
| 08 | 10:52 | SE 1 | 5.00 | Overcast | BKN017CB OVC120 | 80.2 | 76.3 | 80.2 | 77 | 88% | 86 | 29.81 | 1009.6 | 0.14 | |||
| 08 | 09:54 | NE 3 | 5.00 | Light Showers Rain | BKN017CB OVC120 | 79 | 77 | 94% | 83 | 29.81 | 1009.4 | ||||||
| 08 | 08:53 | NE 5 | 3.00 | Light Showers Rain | OVC017CB | 78.3 | 75.9 | 93% | 81 | 29.83 | 1010.1 | ||||||
| 08 | 07:55 | E 6 | 3.00 | Light Showers Rain | BKN017CB OVC130 | 77.9 | 76.3 | 95% | 80 | 29.82 | 1009.9 | 0.12 | |||||
| 08 | 06:54 | E 5 | 10.00 | Light Rain | BKN017TCU OVC130 | 77 | 76.6 | 99% | 78 | 29.79 | 1008.9 | ||||||
| 08 | 05:50 | SE 6 | 12.00 | Light Showers Rain | BKN017TCU OVC130 | 78.8 | 76.3 | 92% | 83 | 29.76 | 1007.8 | ||||||
| 08 | 04:53 | Calm | 12.00 | Overcast | BKN017TCU OVC130 | 78.8 | 76.3 | 80.6 | 77.9 | 92% | 83 | 29.75 | 1007.3 | 0.31 | |||
| 08 | 03:50 | E 8 | 5.00 | Light Showers Rain | BKN017TCU OVC130 | 77.9 | 76.3 | 95% | 80 | 29.75 | 1007.3 | ||||||
| 08 | 02:55 | SE 5 | 5.00 | Light Showers Rain | BKN017TCU OVC130 | 77.9 | 76.3 | 95% | 80 | 29.75 | 1007.4 | ||||||
| 08 | 01:55 | E 7 | 12.00 | Overcast | BKN017TCU OVC130 | 80.6 | 77.7 | 91% | 88 | 29.75 | 1007.4 | 0.12 | |||||
| 08 | 00:59 | E 5 | 8.00 | Light Showers Rain | OVC018TCU | 80.6 | 76.8 | 88% | 87 | 29.77 | 1008.0 | ||||||
| 07 | 23:54 | Calm | 8.00 | Light Showers Rain | OVC018TCU | 79 | 77.7 | 96% | 83 | 29.79 | 1008.9 | ||||||
| 07 | 22:58 | E 5 | 10.00 | Overcast | BKN018TCU OVC120 | 79 | 76.6 | 81.3 | 79 | 93% | 83 | 29.8 | 1009.2 | 0.1 | |||
| 07 | 21:52 | E 2 | 10.00 | Mostly Cloudy | SCT017TCU BKN120 | 80.6 | 75.7 | 85% | 86 | 29.81 | 1009.3 | ||||||
| 07 | 20:53 | E 3 | 10.00 | Mostly Cloudy | SCT017TCU BKN120 | 81.3 | 75.7 | 83% | 88 | 29.81 | 1009.3 | ||||||
| 07 | 19:56 | E 2 | 10.00 | Overcast | BKN017TCU OVC120 | 81 | 75.6 | 84% | 87 | 29.79 | 1008.8 | 0.75 | |||||
| 07 | 18:54 | E 12 | 10.00 | Light Showers Rain | BKN017TCU OVC120 | 81.1 | 75.9 | 84% | 88 | 29.79 | 1008.6 | ||||||
| 07 | 17:50 | E 9 | 10.00 | Overcast | BKN017TCU OVC120 | 80.8 | 77.2 | 89% | 88 | 29.74 | 1007.2 | ||||||
| 07 | 16:50 | E 8 G 20 | 10.00 | Light Showers Rain | BKN017TCU OVC120 | 81.3 | 75.9 | 82 | 80.2 | 84% | 88 | 29.72 | 1006.4 | 0.1 | |||
| 07 | 16:10 | NE 9 | 8.00 | Light Showers Rain | OVC017TCU | 81 | 76.3 | 86% | 87 | 29.72 | 1006.4 | ||||||
| 07 | 14:51 | E 13 G 40 | 8.00 | Light Showers Rain | OVC017TCU | 80.2 | 76.5 | 88% | 86 | 29.73 | 1006.7 | ||||||
| 07 | 13:51 | E 13 G 28 | 10.00 | Light Showers Rain | OVC017TCU | 80.6 | 75.2 | 84% | 86 | 29.8 | 1009.0 | 0.07 | |||||
| 07 | 12:59 | E 7 | 10.00 | Light Showers Rain | BKN017TCU OVC120 | 81 | 75.9 | 85% | 87 | 29.76 | 1007.7 | ||||||
| 07 | 11:55 | N 9 | 10.00 | Overcast | SCT017 OVC120 | 82 | 77.5 | 86% | 91 | 29.79 | 1008.6 | ||||||
| Date | Time (+11) | Wind (mph) | Vis. (mi.) | Weather | Sky Cond. | Air | Dwpt | Max. | Min. | Relative Humidity | Wind Chill (°F) | Heat Index (°F) | altimeter (in) | sea level (mb) | 1 hr | 3 hr | 6 hr |
| 6 hour | |||||||||||||||||
| Temperature (ºF) | Pressure | Precipitation (in) | |||||||||||||||